Total_Precipitation_Accumulation
0.00 0.00 0.03 0.05 0.03 0.06 0.16 0.17 0.08 0.01 0.00 0.00 0.00 0.00 0.00 0.00 0.02 0.04 0.00 0.00 0.00 0.00 0.00 0.01 0.00 0.01 0.01 0.01 0.00 0.00 0.00 0.00 0.00 0.01 0.01 0.01 0.01 0.00 0.00 0.00 0.00 0.00 0.00 0.00 0.00 0.00 0.00 0.00 0.00
0.00 0.00 0.02 0.02 0.03 0.12 0.29 0.61 0.12 0.03 0.01 0.00 0.00 0.00 0.00 0.00 0.00 0.00 0.00 0.00 0.00 0.00 0.00 0.00 0.00 0.01 0.01 0.01 0.01 0.01 0.01 0.00 0.01 0.05 0.05 0.04 0.01 0.01 0.00 0.00 0.00 0.00 0.00 0.00 0.00 0.00 0.00 0.00 0.00
0.00 0.00 0.01 0.01 0.05 0.16 0.15 0.30 0.09 0.03 0.01 0.00 0.00 0.00 0.00 0.00 0.00 0.00 0.00 0.00 0.00 0.00 0.00 0.00 0.00 0.01 0.00 0.01 0.01 0.03 0.01 0.00 0.02 0.08 0.09 0.07 0.02 0.02 0.02 0.01 0.00 0.00 0.01 0.00 0.00 0.01 0.00 0.00 0.01
0.00 0.00 0.01 0.01 0.04 0.14 0.17 0.12 0.04 0.02 0.01 0.00 0.00 0.00 0.00 0.00 0.00 0.00 0.00 0.00 0.00 0.00 0.00 0.00 0.00 0.01 0.00 0.00 0.01 0.04 0.06 0.03 0.05 0.08 0.08 0.07 0.05 0.08 0.06 0.02 0.01 0.01 0.02 0.01 0.00 0.00 0.00 0.00 0.00
0.00 0.00 0.00 0.01 0.06 0.16 0.19 0.10 0.06 0.02 0.01 0.00 0.00 0.00 0.00 0.00 0.00 0.00 0.00 0.00 0.00 0.00 0.00 0.00 0.00 0.00 0.00 0.00 0.00 0.01 0.04 0.05 0.07 0.07 0.06 0.04 0.03 0.03 0.03 0.02 0.01 0.01 0.01 0.01 0.00 0.01 0.01 0.01 0.01
0.00 0.00 0.00 0.02 0.05 0.11 0.11 0.07 0.06 0.03 0.01 0.01 0.00 0.00 0.00 0.00 0.00 0.00 0.00 0.00 0.00 0.00 0.00 0.00 0.00 0.00 0.00 0.00 0.00 0.00 0.00 0.01 0.01 0.02 0.02 0.01 0.01 0.02 0.03 0.03 0.01 0.01 0.01 0.01 0.01 0.01 0.02 0.02 0.02
0.00 0.00 0.00 0.01 0.03 0.07 0.09 0.06 0.04 0.03 0.02 0.01 0.00 0.00 0.00 0.00 0.00 0.00 0.00 0.00 0.00 0.00 0.00 0.00 0.00 0.00 0.00 0.00 0.00 0.00 0.00 0.00 0.00 0.00 0.00 0.00 0.00 0.02 0.03 0.05 0.04 0.03 0.03 0.03 0.03 0.01 0.01 0.01 0.02
0.00 0.00 0.00 0.00 0.01 0.04 0.05 0.05 0.02 0.02 0.02 0.01 0.00 0.00 0.00 0.00 0.00 0.00 0.00 0.00 0.00 0.00 0.00 0.00 0.01 0.00 0.00 0.00 0.00 0.00 0.00 0.00 0.00 0.00 0.00 0.00 0.00 0.01 0.03 0.05 0.05 0.06 0.08 0.08 0.04 0.02 0.01 0.01 0.01
0.00 0.00 0.00 0.00 0.00 0.00 0.01 0.02 0.01 0.00 0.01 0.00 0.00 0.00 0.00 0.00 0.00 0.00 0.00 0.00 0.00 0.00 0.00 0.00 0.01 0.01 0.00 0.00 0.00 0.00 0.00 0.00 0.00 0.00 0.00 0.01 0.01 0.02 0.06 0.05 0.08 0.09 0.08 0.07 0.04 0.02 0.02 0.02 0.01
0.00 0.00 0.00 0.00 0.00 0.00 0.00 0.00 0.00 0.00 0.00 0.00 0.00 0.01 0.00 0.00 0.00 0.00 0.00 0.00 0.00 0.00 0.00 0.00 0.01 0.01 0.00 0.00 0.00 0.00 0.00 0.00 0.00 0.01 0.04 0.05 0.10 0.09 0.03 0.04 0.10 0.14 0.15 0.13 0.12 0.10 0.08 0.09 0.10
0.00 0.00 0.00 0.00 0.00 0.00 0.00 0.00 0.00 0.00 0.01 0.01 0.03 0.10 0.06 0.00 0.00 0.00 0.00 0.00 0.00 0.00 0.00 0.00 0.01 0.01 0.00 0.00 0.00 0.00 0.00 0.02 0.01 0.01 0.05 0.10 0.10 0.05 0.01 0.02 0.05 0.09 0.15 0.14 0.22 0.23 0.17 0.20 0.26
0.00 0.00 0.00 0.00 0.00 0.00 0.00 0.00 0.00 0.01 0.03 0.03 0.03 0.05 0.04 0.01 0.00 0.00 0.00 0.00 0.00 0.00 0.00 0.00 0.00 0.01 0.01 0.00 0.00 0.00 0.00 0.01 0.01 0.02 0.01 0.05 0.05 0.02 0.01 0.02 0.03 0.06 0.09 0.16 0.21 0.26 0.20 0.17 0.13
0.00 0.00 0.00 0.00 0.00 0.00 0.00 0.00 0.01 0.02 0.04 0.05 0.05 0.04 0.01 0.01 0.01 0.01 0.00 0.00 0.00 0.00 0.00 0.00 0.00 0.00 0.00 0.01 0.01 0.00 0.00 0.00 0.00 0.01 0.01 0.02 0.03 0.02 0.01 0.01 0.02 0.02 0.05 0.07 0.11 0.12 0.18 0.21 0.13
0.00 0.00 0.00 0.00 0.00 0.00 0.00 0.00 0.00 0.01 0.05 0.08 0.05 0.03 0.02 0.01 0.01 0.01 0.01 0.01 0.00 0.00 0.01 0.00 0.00 0.00 0.00 0.01 0.00 0.00 0.00 0.00 0.00 0.00 0.00 0.01 0.01 0.02 0.02 0.02 0.04 0.04 0.05 0.05 0.09 0.13 0.22 0.26 0.29
0.00 0.00 0.00 0.00 0.00 0.00 0.00 0.00 0.00 0.01 0.05 0.07 0.10 0.14 0.11 0.04 0.02 0.02 0.03 0.01 0.01 0.01 0.02 0.01 0.01 0.01 0.01 0.01 0.01 0.01 0.01 0.01 0.01 0.01 0.00 0.01 0.01 0.02 0.04 0.04 0.07 0.10 0.12 0.15 0.15 0.23 0.29 0.31 0.41
0.00 0.00 0.00 0.00 0.00 0.00 0.00 0.00 0.00 0.00 0.02 0.06 0.07 0.10 0.13 0.08 0.05 0.05 0.03 0.04 0.03 0.03 0.03 0.04 0.06 0.06 0.04 0.03 0.02 0.02 0.01 0.01 0.02 0.02 0.03 0.03 0.04 0.07 0.16 0.16 0.17 0.31 0.28 0.27 0.35 0.49 0.46 0.48 0.48
0.00 0.00 0.00 0.00 0.00 0.00 0.00 0.00 0.00 0.01 0.04 0.07 0.04 0.04 0.08 0.13 0.15 0.15 0.13 0.10 0.07 0.07 0.11 0.18 0.20 0.19 0.14 0.11 0.09 0.06 0.04 0.03 0.03 0.06 0.08 0.10 0.15 0.21 0.34 0.36 0.47 0.54 0.49 0.50 0.51 0.64 0.59 0.49 0.45
0.00 0.00 0.00 0.00 0.00 0.00 0.00 0.00 0.00 0.01 0.02 0.03 0.04 0.08 0.16 0.17 0.27 0.27 0.20 0.16 0.13 0.16 0.23 0.28 0.34 0.37 0.42 0.44 0.31 0.20 0.14 0.11 0.10 0.11 0.15 0.21 0.29 0.39 0.57 0.58 0.65 0.70 0.71 0.69 0.67 0.60 0.62 0.53 0.49
0.00 0.00 0.00 0.00 0.00 0.00 0.00 0.00 0.00 0.00 0.01 0.02 0.02 0.08 0.11 0.10 0.12 0.15 0.15 0.18 0.21 0.20 0.24 0.34 0.47 0.54 0.56 0.55 0.47 0.44 0.41 0.40 0.33 0.33 0.37 0.39 0.42 0.58 0.79 0.76 0.80 0.79 0.75 0.75 0.77 0.66 0.55 0.42 0.49
0.00 0.00 0.00 0.00 0.00 0.00 0.00 0.00 0.00 0.00 0.01 0.02 0.04 0.06 0.07 0.09 0.10 0.13 0.17 0.22 0.27 0.29 0.34 0.39 0.55 0.69 0.68 0.73 0.77 0.83 0.90 0.74 0.63 0.70 0.74 0.74 0.80 0.86 0.92 0.94 0.93 0.89 0.86 0.76 0.67 0.65 0.55 0.42 0.44
0.00 0.00 0.00 0.00 0.00 0.00 0.00 0.00 0.00 0.01 0.04 0.07 0.10 0.15 0.22 0.24 0.23 0.19 0.18 0.23 0.28 0.33 0.38 0.44 0.56 0.69 0.74 0.88 1.07 1.17 1.27 1.14 1.17 1.27 1.32 1.30 1.31 1.27 1.24 1.13 0.97 0.82 0.75 0.67 0.65 0.65 0.60 0.51 0.45
0.00 0.00 0.00 0.00 0.00 0.00 0.00 0.00 0.00 0.01 0.03 0.06 0.09 0.17 0.32 0.39 0.35 0.32 0.31 0.33 0.36 0.40 0.50 0.63 0.73 0.82 0.94 1.08 1.27 1.38 1.42 1.44 1.60 1.81 1.71 1.49 1.32 1.17 1.02 0.89 0.82 0.72 0.69 0.60 0.55 0.55 0.52 0.46 0.46
0.00 0.00 0.00 0.00 0.00 0.00 0.00 0.00 0.00 0.00 0.01 0.04 0.13 0.25 0.38 0.44 0.44 0.48 0.48 0.50 0.51 0.55 0.64 0.77 0.89 0.97 1.04 1.11 1.20 1.30 1.37 1.41 1.42 1.40 1.29 1.13 0.99 0.85 0.72 0.65 0.62 0.57 0.56 0.49 0.46 0.44 0.41 0.41 0.42
0.00 0.00 0.00 0.00 0.00 0.00 0.01 0.01 0.01 0.02 0.02 0.04 0.16 0.29 0.39 0.46 0.50 0.54 0.56 0.57 0.59 0.61 0.63 0.65 0.68 0.75 0.82 0.86 0.91 0.95 0.95 0.95 0.90 0.82 0.75 0.69 0.62 0.50 0.40 0.37 0.39 0.45 0.50 0.45 0.41 0.38 0.37 0.40 0.47
0.00 0.00 0.00 0.00 0.00 0.01 0.01 0.02 0.04 0.04 0.04 0.07 0.19 0.26 0.31 0.33 0.37 0.45 0.49 0.53 0.55 0.56 0.56 0.55 0.54 0.54 0.51 0.50 0.51 0.55 0.56 0.56 0.54 0.54 0.53 0.50 0.45 0.37 0.31 0.27 0.29 0.35 0.42 0.38 0.33 0.33 0.39 0.45 0.49
0.00 0.00 0.03 0.04 0.02 0.00 0.00 0.01 0.09 0.08 0.13 0.19 0.26 0.30 0.30 0.28 0.30 0.39 0.47 0.52 0.53 0.50 0.49 0.49 0.48 0.47 0.41 0.37 0.36 0.39 0.42 0.43 0.40 0.38 0.35 0.34 0.34 0.35 0.34 0.30 0.30 0.31 0.35 0.34 0.33 0.30 0.35 0.41 0.44
0.00 0.00 0.01 0.08 0.06 0.01 0.00 0.01 0.06 0.05 0.10 0.25 0.32 0.35 0.37 0.37 0.33 0.32 0.34 0.37 0.38 0.36 0.36 0.40 0.48 0.49 0.48 0.46 0.43 0.37 0.35 0.33 0.29 0.26 0.25 0.25 0.26 0.30 0.34 0.33 0.34 0.38 0.42 0.44 0.46 0.47 0.50 0.58 0.61
0.01 0.01 0.03 0.05 0.03 0.01 0.00 0.00 0.03 0.05 0.04 0.10 0.12 0.11 0.15 0.17 0.17 0.15 0.14 0.15 0.16 0.20 0.27 0.36 0.40 0.40 0.41 0.42 0.43 0.42 0.37 0.31 0.24 0.20 0.19 0.20 0.22 0.25 0.31 0.37 0.39 0.40 0.40 0.42 0.50 0.67 0.78 0.81 0.79
0.01 0.01 0.02 0.02 0.02 0.02 0.02 0.01 0.02 0.02 0.03 0.04 0.05 0.05 0.08 0.08 0.10 0.13 0.14 0.18 0.19 0.23 0.30 0.38 0.40 0.40 0.42 0.41 0.41 0.41 0.39 0.36 0.29 0.23 0.20 0.19 0.22 0.25 0.28 0.34 0.38 0.40 0.41 0.41 0.44 0.55 0.67 0.71 0.67
0.01 0.01 0.00 0.00 0.00 0.01 0.02 0.01 0.00 0.02 0.03 0.06 0.11 0.12 0.13 0.14 0.14 0.16 0.16 0.22 0.27 0.27 0.28 0.33 0.37 0.42 0.51 0.60 0.68 0.69 0.61 0.51 0.41 0.31 0.24 0.22 0.23 0.25 0.25 0.26 0.29 0.31 0.35 0.38 0.45 0.53 0.55 0.54 0.49